RH
80 72 61 59 61 60 61 65 63 61 61 59 57 61 64 59 52 50 48 48 48 47 42 38 35 32 33 36 37 41 46 42 39 39 37 40 47 51 54 56 54 52
75 72 65 60 63 61 58 63 64 61 60 59 60 64 65 60 57 55 53 54 53 48 40 36 35 32 32 36 36 38 44 42 38 38 37 39 43 46 51 55 54 52
71 73 69 61 62 60 56 59 63 61 61 62 63 65 61 58 59 59 56 56 54 46 37 33 35 33 31 32 31 36 44 43 40 40 39 40 40 41 44 48 50 51
73 74 70 63 61 59 56 58 63 63 62 63 65 64 59 58 61 61 58 56 52 45 37 33 34 35 33 31 30 35 40 38 36 36 38 41 40 39 40 41 44 48
75 74 70 65 63 61 59 61 65 65 64 66 68 66 63 63 64 62 60 59 55 48 40 36 36 36 35 34 34 35 34 32 30 29 33 38 40 40 37 36 40 44
76 73 72 68 65 62 60 62 65 66 66 68 70 69 68 67 67 65 64 62 57 50 42 38 39 39 37 36 36 36 34 32 29 28 29 33 38 41 38 36 39 41
77 74 74 69 64 62 61 62 66 68 67 68 69 70 69 70 72 70 67 64 59 54 46 40 40 40 39 38 38 37 36 34 33 31 31 31 34 39 41 39 40 41
78 74 74 70 65 65 64 64 66 68 67 66 67 68 69 72 73 70 67 64 62 59 53 44 42 42 41 41 38 36 35 35 36 35 34 33 31 34 40 41 40 41
76 72 73 70 67 67 67 66 66 68 68 67 64 64 69 72 69 65 67 67 63 60 54 46 43 43 42 42 39 36 34 34 35 37 37 36 33 31 34 38 39 41
72 71 71 69 68 68 67 66 65 67 70 69 65 63 66 69 66 65 70 69 64 60 53 43 38 40 43 44 41 38 37 35 34 37 39 40 38 34 32 32 35 37
77 79 73 67 67 67 65 66 66 68 71 70 67 64 63 62 64 69 72 68 63 59 52 43 36 37 42 43 40 39 40 39 39 41 43 44 44 42 39 36 34 35
83 86 75 66 67 67 65 67 68 68 69 70 71 66 59 56 61 69 71 68 66 61 54 46 39 38 42 43 42 42 43 44 45 45 46 47 47 47 44 42 40 40
82 83 75 69 68 66 65 66 67 66 66 69 72 67 58 55 59 65 69 70 69 64 58 51 44 40 43 45 46 46 47 48 48 49 49 49 50 49 46 44 44 43
82 82 79 76 72 65 63 65 65 65 66 66 67 65 62 60 60 63 69 72 71 67 60 54 49 46 47 50 52 51 51 51 51 52 51 48 47 46 43 44 46 45
82 83 82 83 80 70 65 67 69 68 68 67 66 65 66 68 68 68 70 74 75 71 63 57 57 56 53 54 57 56 55 55 54 53 51 48 46 45 42 42 46 47
82 83 82 82 84 79 71 70 73 74 74 73 72 69 69 72 74 75 76 77 76 71 65 62 63 61 55 52 54 56 59 60 57 51 49 48 48 46 43 41 43 44
84 85 84 82 84 85 80 74 73 76 78 77 76 75 73 74 76 78 79 78 77 74 68 64 63 61 56 52 50 53 57 59 58 55 51 49 48 46 45 44 45 46
86 86 87 87 86 87 88 82 78 80 82 81 80 80 80 81 83 84 82 78 75 72 68 64 64 64 61 54 50 51 52 53 57 57 53 49 49 49 49 52 53 52
87 87 90 92 91 90 91 88 85 87 89 88 88 87 85 86 87 88 87 81 75 71 69 68 68 68 65 56 50 50 49 49 52 53 51 51 52 53 53 56 58 59
89 90 91 92 90 91 93 92 90 90 91 91 93 92 90 88 85 84 86 83 77 75 76 75 74 75 70 60 53 51 49 49 51 51 51 54 55 56 57 58 60 61
92 92 93 92 91 92 94 93 91 90 91 93 95 92 89 86 82 81 81 78 75 76 77 77 78 79 75 66 60 56 53 52 52 51 52 53 54 55 56 57 59 61
94 93 94 93 92 91 91 89 87 87 89 91 91 89 86 83 82 83 82 79 79 82 83 82 82 80 75 68 62 58 56 54 52 51 51 52 53 54 55 57 58 59
90 91 91 91 91 91 91 90 90 89 90 89 88 87 86 85 85 86 84 82 84 89 90 88 84 77 70 66 61 58 56 55 55 56 57 57 57 58 58 59 59 60
86 87 87 89 91 93 93 94 94 94 93 91 88 87 88 87 87 89 89 88 89 91 89 85 81 76 71 68 64 61 60 59 60 62 65 66 67 67 67 67 66 67
84 85 86 88 91 92 92 92 92 92 90 87 86 86 86 85 85 88 91 91 90 90 88 86 83 79 74 71 67 65 64 63 62 64 67 69 70 69 71 72 72 72
82 85 88 90 91 91 89 88 87 87 86 85 85 86 85 83 84 87 90 90 90 89 89 89 89 85 80 76 74 73 71 69 68 70 73 76 77 74 74 77 79 78